User: anonymous   Login
Location: Oshawa
(43.9000°N, 78.8670°W)
Time: 17:10:23
(UTC-05:00)
Language:

Cosmos 1707 Rocket - Orbit

View from above orbital plane
View from above orbital plane
View from above satellite
View from above satellite

Ground track
Ground track

The orbit data is extracted from the following two-line orbital elements,

1 16327U 85113B   14327.16678759  .00000488  00000-0  57018-4 0  5174
2 16327 082.5364 248.1660 0019158 193.0807 288.4364 14.82938636562983
Epoch (UTC): 23 November 2014 04:00:10
Eccentricity: 0.0019158
inclination: 82.5364°
perigee height: 606 km
apogee height: 633 km
right ascension of ascending node: 248.1660°
argument of perigee: 193.0807°
revolutions per day: 14.82938636
mean anomaly at epoch: 288.4364°
orbit number at epoch: 56298

The dashed part of the orbit path shows where the satellite is in the earth's shadow,  

DLR